Погода в Мужене

Франция     43°35′36″N   6°59′32″E
темп.,
°C
ветер,
м/с
пор.,
м/с
влажн.,
%
обл.,
%
осадки,
мм/ч
давл.,
гПа
погр.,
м
13 апреля, вт
вт1323:00+12в348081 0.3 1016413
02:00+12зюз468036 0.4 1016524
05:00+10з32690 0.1 1015146
08:00+10всв12662 0.1 1016230
11:00+12всв44641 0.0 1018562
14:00+13ююв44625 0.0 1019528
17:00+12ююз55657 0.0 1019552
20:00+13ююз456885 0.0 1020628
14 апреля, ср
ср1423:00+12з2258100 0.0 1022380
02:00+12зсз126598 0.0 1022222
05:00+11вюв337343 0.1 1022445
08:00+11в447799 1.1 1022606
11:00+11в557399 0.7 1022859
14:00+11всв557479 0.9 1022784
17:00+11всв446776 0.1 1020848
20:00+11всв336696 0.1 1020835
15 апреля, чт
чт1523:00+11св337063 0.0 1020611
02:00+10ссв227099 0.0 1020447
05:00+11св336962 0.0 1019474
08:00+10св336851 0.1 1019459
11:00+11всв546413 0.3 1020851
14:00+12в556024 0.4 1020993
17:00+12в556210 0.0 1018994
20:00
16 апреля, пт
пт1623:00+12ссв225723 0.0 1018513
02:00+11с225833 0.0 1017274
05:00+11ссв236054 0.0 1016303
08:00+11с235828 0.0 1016302
11:00+12в46505 0.0 1016807
14:00+13в895427 0.0 10151101
17:00+14в8105533 0.0 10131183
20:00+13в896021 0.0 1015943
17 апреля, сб
сб1723:00+13всв3460100 0.2 1014329
02:00+12св235288 0.3 1014213
05:00+11ссв225129 0.0 1013271
08:00+11ссз22478 0.0 1013176
11:00+12ююз21455 0.0 1014500
14:00+13ю44456 0.0 1013518
17:00+14ююз33466 0.0 1012695
20:00+12зюз66645 0.0 1013436